FW9390 Weather Reports


Display with metric or nautical units.
time (UTC)temp
F
wind
direction
speed
MPH
gust
MPH
rain 1hr
in
rain 24hr
in
rain mn
in
humidity
%
barometer
mb
20260505200038 50 343 10.0 15.0 0.00 0.00 0.00 79 1013.8
20260505194603 51 349 9.0 14.0 0.00 0.00 0.00 78 1013.8
20260505193042 51 24 9.0 16.0 0.00 0.00 0.00 77 1013.6
20260505191554 52 355 8.0 16.0 0.00 0.00 0.00 75 1013.5
20260505190042 53 15 9.0 18.0 0.00 0.00 0.00 72 1013.6
20260505184538 53 17 11.0 16.0 0.00 0.00 0.00 72 1013.5
20260505183043 54 5 11.0 17.0 0.00 0.00 0.00 71 1013.4
20260505181542 54 352 11.0 16.0 0.00 0.00 0.00 70 1013.4
20260505180047 55 5 12.0 16.0 0.00 0.00 0.00 69 1013.4
20260505174542 55 360 12.0 19.0 0.00 0.00 0.00 69 1013.4
20260505173037 56 12 9.0 18.0 0.00 0.00 0.00 68 1013.3
20260505171538 56 325 10.0 17.0 0.00 0.00 0.00 66 1013.3
20260505170044 56 355 10.0 16.0 0.00 0.00 0.00 66 1013.4
20260505164544 55 9 11.0 15.0 0.00 0.00 0.00 67 1013.3
20260505163039 56 325 11.0 16.0 0.00 0.00 0.00 64 1013.4
20260505161538 58 5 11.0 20.0 0.00 0.00 0.00 63 1013.3
20260505153038 60 5 9.0 20.0 0.00 0.01 0.00 60 1013.4
20260505151541 58 347 14.0 20.0 0.00 0.01 0.00 57 1013.3
20260505124543 58 13 10.0 17.0 0.00 0.07 0.00 60 1013.8
20260505123053 58 17 8.0 16.0 0.00 0.07 0.00 57 1013.8
20260505121612 59 11 5.0 15.0 0.00 0.07 0.00 58 1013.7
20260505120037 59 355 10.0 17.0 0.00 0.07 0.00 60 1013.9
20260505114540 58 348 6.0 18.0 0.00 0.09 0.00 59 1013.9
20260505113048 58 322 10.0 17.0 0.00 0.09 0.00 62 1014.0
20260505111548 58 21 8.0 15.0 0.00 0.09 0.00 61 1014.1
20260505101542 58 46 8.0 16.0 0.00 0.10 0.00 64 1014.5
20260505100113 58 24 9.0 16.0 0.00 0.10 0.00 64 1014.5
20260505094545 56 26 9.0 16.0 0.00 0.11 0.00 66 1014.7
20260505093042 56 5 8.0 15.0 0.00 0.11 0.00 67 1014.6
20260505091552 56 30 8.0 14.0 0.00 0.11 0.00 70 1014.6
20260505090053 55 341 8.0 15.0 0.00 0.11 0.00 74 1014.7
20260505084538 55 344 9.0 15.0 0.00 0.14 0.00 75 1014.7
20260505083047 54 360 9.0 15.0 0.00 0.14 0.00 76 1014.7
20260505081546 54 351 11.0 16.0 0.00 0.14 0.00 76 1014.6
20260505080050 53 15 8.0 15.0 0.00 0.14 0.00 81 1014.7
20260505074542 52 350 6.0 12.0 0.00 0.19 0.00 86 1014.5
20260505073056 51 13 6.0 11.0 0.00 0.19 0.00 88 1014.6
20260505071546 51 5 7.0 12.0 0.00 0.19 0.00 90 1014.7
20260505070043 50 329 7.0 12.0 0.00 0.19 0.00 93 1014.8
20260505064543 50 327 4.0 8.0 0.00 0.25 0.00 93 1014.8
20260505063048 50 9 4.0 9.0 0.00 0.25 0.00 93 1014.7
20260505061540 50 5 4.0 9.0 0.00 0.25 0.00 93 1014.6
20260505060039 50 355 5.0 9.0 0.00 0.25 0.00 94 1014.5
20260505054558 50 9 6.0 11.0 0.00 0.29 0.00 94 1014.4
20260505053045 50 352 7.0 11.0 0.00 0.29 0.00 94 1014.4
20260505051545 50 351 8.0 12.0 0.00 0.29 0.00 94 1014.4
20260505041548 51 349 7.0 10.0 0.00 0.29 0.00 94 1014.3
20260505040045 51 5 6.0 9.0 0.00 0.29 0.00 95 1014.3
20260505034541 51 5 5.0 8.0 0.00 0.29 0.00 95 1014.3
20260505033038 51 9 5.0 8.0 0.00 0.29 0.00 95 1014.3
20260505031541 51 360 4.0 8.0 0.00 0.29 0.00 94 1014.4
20260505030056 52 11 4.0 7.0 0.00 0.29 0.00 95 1014.3
20260505024543 52 15 4.0 9.0 0.00 0.29 0.00 95 1014.2
20260505023044 52 5 6.0 9.0 0.00 0.29 0.00 95 1014.3
20260505021550 52 5 5.0 8.0 0.00 0.29 0.00 95 1014.2
20260505020050 52 11 5.0 9.0 0.00 0.29 0.00 95 1014.3
20260505014540 52 16 4.0 8.0 0.00 0.29 0.00 95 1014.3
20260505013046 52 15 4.0 7.0 0.00 0.29 0.00 95 1014.4
20260505011544 52 9 4.0 8.0 0.00 0.29 0.00 96 1014.5
20260505010103 52 17 4.0 9.0 0.00 0.29 0.00 96 1014.6
20260505004539 52 15 5.0 9.0 0.00 0.29 0.00 96 1014.6
20260505003049 52 31 5.0 9.0 0.00 0.29 0.00 96 1014.6
20260505001543 52 24 5.0 9.0 0.00 0.29 0.00 96 1014.8
20260505000051 52 12 6.0 11.0 0.00 0.29 0.00 96 1014.9
20260504234541 52 5 6.0 9.0 0.00 0.29 0.00 96 1014.9
20260504233045 52 26 5.0 11.0 0.00 0.29 0.00 96 1014.9
20260504231538 53 22 6.0 9.0 0.00 0.29 0.00 95 1014.9
20260504230104 53 38 4.0 11.0 0.00 0.29 0.00 95 1014.9
20260504224558 53 29 4.0 8.0 0.00 0.29 0.29 95 1015.0
20260504223039 54 5 4.0 10.0 0.00 0.29 0.29 95 1014.9
20260504221539 53 351 6.0 10.0 0.00 0.29 0.29 94 1015.0
20260504220052 53 360 7.0 14.0 0.00 0.29 0.29 94 1014.9
20260504214547 53 360 9.0 14.0 0.00 0.29 0.29 94 1014.9
20260504213040 53 347 9.0 14.0 0.00 0.29 0.29 93 1014.8
20260504211538 53 336 9.0 12.0 0.00 0.29 0.29 93 1014.8
20260504210059 53 355 10.0 13.0 0.00 0.29 0.29 93 1014.9
20260504204549 53 352 10.0 13.0 0.00 0.29 0.29 93 1014.8
20260504203045 53 355 8.0 14.0 0.00 0.29 0.29 93 1014.7
20260504201544 54 355 8.0 13.0 0.00 0.29 0.29 93 1014.7